SCP
0 0 0 0 0 0 0 0 0 0 0 0 0 0 0 0 0 0 0 0 0 0 0 0 0 0 0 0 0 0 0 0 0 0 0 0 0 0 0 0 0 0 0 0
0 0 0 0 0 0 0 0 0 0 0 0 0 0 0 0 0 0 0 0 0 0 0 0 0 0 0 0 0 0 0 0 0 0 0 0 0 0 0 0 0 0 0 0
0 0 0 -0 0 0 0 0 0 0 0 0 0 0 0 0 0 0 0 0 0 0 0 0 0 0 0 0 0 0 0 0 0 0 0 0 0 0 0 0 0 0 0 0
0 0 0 0 0 0 0 0 0 0 0 -0 -0 0 0 0 -0 -0 -0 0 0 0 0 0 0 0 0 0 0 0 0 0 0 0 0 0 0 0 0 0 0 0 0 0
0 0 0 0 0 0 0 0 -0 -0 -0 -0 -0 -0 -0 0 0 0 0 0 0 0 0 0 0 0 0 0 0 0 0 0 0 0 0 0 0 0 0 0 0 0 0 0
0 0 0 0 0 0 0 0 0 -0 -0 -0 -0 0 0 0 0 0 0 0 0 0 0 0 0 0 0 0 0 0 0 0 0 0 0 0 0 0 0 0 0 0 0 0
0 0 0 0 0 0 0 0 0 0 0 0 0 0 0 0 0 0 0 0 0 0 0 0 0 0 0 0 0 0 0 0 0 0 0 0 0 0 0 0 0 0 0 0
0 0 0 0 0 0 0 0 -0 -0 -0 0 0 0 0 0 0 0 0 0 0 -0 0 0 0 -0 0 0 0 0 0 0 0 0 0 0 0 0 0 0 0 0 0 0
0 0 0 -0 0 0 0 -0 0 0 0 0 0 0 0 0 0 0 0 0 0 -0 -0 -0 -0 -0 -0 0 0 0 0 0 0 0 0 0 0 0 0 0 0 0 0 0
0 0 0 -0 0 0 0 0 0 0 0 0 0 0 0 0 0 0 0 0 0 0 0 0 0 -0 -0 0 0 -0 0 0 0 0 0 0 0 0 -0 0 0 0 0 0
0 0 0 0 0 0 -0 -0 -0 -0 -0 0 0 0 0 0 0 0 0 0 0 0 0 0 0 0 -0 0 0 0 0 0 0 0 0 0 0 0 -0 0 0 0 0 0
0 0 0 0 0 -0 -0 -0 -0 -0 -0 0 0 0 0 0 0 0 0 0 0 0 0 0 0 0 0 0 -0 -0 0 0 0 0 0 0 0 -0 0 0 0 -0 0 0
0 0 0 0 -0 -0 -0 -0 -0 -0 -0 -0 0 0 0 0 0 0 0 0 0 0 0 0 0 0 -0 -0 -0 -0 -0 0 0 -0 -0 -0 -0 -0 -0 0 0 0 -0 -0
0 -0 -0 -0 -0 -0 -0 -0 -0 -0 0 0 0 0 0 0 0 0 0 0 0 0 0 0 0 0 -0 -0 -0 -0 -0 -0 -0 -0 -0 -0 -0 -0 0 0 -0 -0 -0 -0
0 0 -0 -0 -0 -0 -0 -0 -0 0 0 0 0 0 0 0 0 0 0 0 0 0 0 0 0 0 -0 -0 -0 0 -0 0 -0 0 -0 -0 -0 -0 0 0 -0 -0 -0 -0
0 -0 -0 -0 -0 -0 -0 -0 0 0 0 0 0 0 0 0 0 0 0 0 0 0 0 0 0 0 0 0 -0 0 -0 0 0 -0 -0 -0 -0 -0 0 -0 -0 -0 -0 -0
-0 0 0 0 0 0 0 0 0 0 0 0 0 0 0 0 0 0 0 0 0 0 0 0 0 0 0 -0 -0 -0 -0 -0 0 -0 -0 -0 -0 -0 0 0 -0 -0 -0 -0
-0 0 0 0 0 0 0 -0 0 0 0 0 0 0 0 0 0 0 0 0 0 0 0 0 0 0 0 -0 -0 -0 -0 -0 0 -0 0 -0 -0 -0 -0 0 0 -0 -0 -0
0 0 0 0 0 -0 0 0 0 0 0 0 0 0 0 0 0 0 0 0 0 0 0 0 -0 -0 -0 -0 -0 0 -0 -0 0 0 0 0 0 0 -0 -0 0 0 -0 -0
0 0 0 -0 -0 -0 0 0 0 0 0 0 0 0 0 0 0 0 0 0 -0 -0 -0 -0 -0 -0 -0 -0 -0 0 0 -0 0 0 0 0 0 0 -0 -0 0 0 0 0
0 0 -0 -0 0 0 0 0 0 0 0 0 0 0 0 0 -0 -0 -0 0 0 0 0 -0 -0 -0 0 0 0 0 0 -0 -0 0 0 0 0 0 -0 -0 -0 -0 -0 0
0 0 -0 -0 -0 0 0 0 0 0 0 0 0 -0 -0 -0 -0 -0 0 -0 -0 -0 -0 0 0 -0 0 0 -0 -0 -0 -0 -0 -0 0 0 0 0 0 -0 -0 -0 -0 -0
-0 -0 -0 -0 -0 0 0 0 0 -0 -0 -0 -0 -0 -0 -0 0 0 0 -0 0 0 -0 -0 0 0 -0 -0 -0 -0 -0 -0 -0 -0 -0 0 0 0 0 0 -0 -0 -0 -0
-0 -0 -0 -0 0 0 0 0 0 0 0 0 -0 -0 -0 -0 -0 0 -0 0 0 0 -0 -0 0 0 0 -0 -0 -0 -0 -0 -0 -0 -0 -0 -0 0 0 0 0 0 0 0
-0 -0 -0 -0 0 0 0 0 0 0 0 0 0 -0 -0 -0 -0 0 0 0 0 0 -0 -0 0 0 0 0 0 0 -0 -0 0 -0 -0 -0 -0 0 0 0 0 0 0 0
0 0 0 0 0 0 -0 -0 -0 -0 -0 0 0 0 -0 0 0 0 0 0 0 0 0 -0 0 0 0 0 0 0 0 -0 -0 -0 0 -0 0 -0 0 0 0 0 0 0
0 0 0 0 0 0 -0 0 0 0 0 0 0 0 0 0 0 0 0 0 0 0 0 0 0 0 0 0 0 0 0 0 0 -0 -0 -0 0 -0 0 0 0 0 0 0
Wind_Speed_500mb
6 10 3 12 23 31 35 16 16 18 20 13 12 15 28 53 67 77 63 47 53 52 44 35 24 15 10 4 10 17 23 23 22 26 31 32 36 40 42 46 53 60 63 61
10 5 3 14 23 18 33 22 22 12 9 7 23 27 34 44 57 58 49 62 54 49 40 33 19 8 7 13 20 23 26 26 27 31 35 38 40 45 49 54 59 63 61 52
6 8 14 12 11 4 10 9 15 10 12 12 25 21 17 38 47 39 48 61 49 41 34 21 7 8 14 18 19 19 23 24 29 36 42 46 49 52 55 57 59 57 50 43
8 4 13 11 31 20 17 20 21 11 18 14 40 51 53 61 62 54 64 55 46 33 18 5 5 13 19 21 21 25 31 35 40 45 49 48 50 51 52 50 45 42 41 42
9 4 11 11 35 29 30 13 21 32 37 62 70 79 54 63 66 62 60 50 38 21 10 1 11 20 22 24 26 30 35 41 46 44 43 46 50 50 48 45 39 37 33 37
8 9 5 4 14 45 27 22 12 62 47 51 60 28 17 52 53 48 40 29 22 12 11 15 26 30 32 31 31 36 41 41 40 38 39 43 47 47 45 37 37 37 42 41
19 7 5 12 15 22 15 8 41 57 48 50 31 39 63 54 45 35 29 22 17 17 26 32 37 39 39 38 36 36 37 36 38 37 35 36 41 39 37 31 31 33 38 41
9 7 3 15 17 12 25 50 64 69 77 76 76 71 63 55 48 43 39 27 23 26 31 33 36 42 46 47 41 38 36 35 34 32 30 33 35 33 27 27 31 37 42 41
8 8 16 56 52 62 72 66 59 69 64 77 71 65 57 51 44 38 33 29 27 25 25 33 39 42 47 49 50 46 38 35 33 32 27 27 33 32 30 29 30 32 36 45
16 23 33 63 72 74 77 73 74 73 72 70 69 61 57 48 41 35 29 25 15 14 22 29 35 41 39 44 49 53 53 38 33 29 26 28 27 27 27 28 28 32 40 44
36 31 45 52 64 71 68 70 70 66 63 62 57 51 49 43 37 32 26 20 19 24 25 24 32 39 42 41 53 57 58 39 31 28 27 29 31 30 25 20 24 29 35 42
12 21 43 43 57 62 69 68 64 64 61 55 52 49 45 41 32 26 25 19 23 26 23 26 33 36 45 37 51 60 63 42 33 30 36 37 40 36 22 12 11 11 20 36
20 56 56 61 65 67 70 63 59 59 54 54 44 39 36 37 32 29 26 22 22 22 20 24 29 35 47 33 42 60 69 49 32 32 38 41 37 37 37 21 13 20 25 29
60 65 57 60 62 68 64 58 55 52 48 44 41 41 37 34 28 28 26 18 13 11 16 23 28 37 43 34 40 48 63 56 35 31 35 38 39 37 35 36 39 33 33 36
64 53 64 71 67 64 57 54 55 51 45 44 38 37 33 32 28 23 16 11 12 18 23 25 25 32 31 34 36 39 56 60 45 32 33 37 42 43 39 41 41 46 43 38
57 66 64 64 62 58 56 52 50 47 42 39 37 34 35 33 29 23 21 21 24 32 31 28 22 28 27 29 33 31 46 53 52 43 40 42 44 46 45 47 45 49 51 56
60 53 58 54 54 54 53 49 47 44 40 37 36 33 30 26 23 25 24 22 22 30 34 28 26 31 30 32 32 36 38 43 46 49 51 48 48 49 50 49 49 48 51 52
55 50 45 51 48 52 54 53 46 40 36 33 29 25 25 22 17 20 19 14 18 29 38 30 23 29 29 27 26 27 25 35 42 37 46 51 54 55 54 52 50 50 50 51
45 49 44 45 46 51 53 50 43 39 36 32 30 29 28 24 17 20 22 26 27 34 40 30 29 26 31 29 27 24 27 26 34 35 35 40 50 54 57 56 54 55 54 54
54 49 53 50 45 44 45 39 41 38 30 30 30 25 23 19 12 13 20 29 26 34 30 25 30 31 26 33 41 28 31 38 33 39 37 35 43 45 51 55 52 55 58 60
50 41 40 45 46 40 40 41 34 28 28 27 19 16 23 11 13 17 21 28 23 31 28 30 28 36 23 36 44 41 34 44 50 48 48 43 41 41 42 48 50 52 52 56
51 48 50 50 47 43 39 34 34 33 26 20 22 23 18 13 14 21 25 18 16 35 30 34 33 31 32 27 41 47 40 39 47 48 51 47 46 44 43 45 49 48 50 52
50 48 46 46 43 40 35 31 30 30 29 25 23 17 18 19 16 16 24 22 18 29 39 29 30 32 30 29 34 40 47 35 40 48 49 43 45 47 45 47 48 47 48 48
48 48 48 44 41 40 38 33 29 23 18 17 24 28 17 21 20 21 27 22 19 17 30 33 25 25 32 29 27 35 42 44 39 41 43 44 38 45 42 40 43 46 46 47
50 46 43 41 39 34 29 27 23 22 26 24 20 16 11 13 14 16 16 21 20 23 12 28 22 20 21 30 25 24 30 34 31 29 38 43 39 42 42 39 41 44 45 49
46 41 35 28 24 24 27 26 25 27 26 21 17 16 18 18 14 10 18 13 18 19 23 22 21 20 18 14 22 23 21 30 32 33 32 36 38 42 43 40 42 43 45 48
34 32 36 27 20 20 21 28 21 24 22 16 19 13 10 14 13 14 10 10 8 10 9 11 18 10 8 6 7 14 14 21 29 32 34 35 38 42 43 45 47 47 48 49
Wind_Direction_500mb
198 127 11 254 239 226 192 159 142 172 153 165 135 133 139 119 126 122 124 127 115 106 100 97 90 82 54 346 305 307 313 318 319 313 307 304 301 301 296 292 293 296 300 303
191 243 315 288 287 255 134 127 108 107 70 124 102 118 141 144 136 146 138 112 110 106 102 95 92 72 333 302 310 322 327 324 321 308 302 298 293 290 290 290 291 291 294 292
101 2 355 275 210 338 110 112 136 117 156 117 85 76 86 137 148 145 108 103 104 101 93 84 58 324 296 301 315 312 305 299 292 290 292 297 300 300 299 298 294 292 288 284
93 121 197 299 313 219 97 95 86 88 216 173 95 77 101 96 106 100 100 100 94 91 95 102 265 275 296 304 298 301 295 294 294 298 302 304 305 307 307 304 305 308 295 286
121 238 99 220 218 139 147 154 184 203 125 115 107 92 75 92 99 95 94 95 100 107 123 179 314 322 323 318 313 301 302 305 307 309 309 309 312 314 314 309 309 311 306 300
143 78 58 198 40 108 90 43 55 125 132 132 119 99 111 105 109 102 104 105 106 82 22 359 6 359 351 343 331 324 319 320 321 319 315 316 319 318 314 313 308 315 315 310
91 108 352 7 8 0 68 134 86 102 120 107 98 110 112 106 98 95 90 77 60 41 30 31 19 13 9 358 346 337 332 331 330 326 325 329 324 321 320 316 315 321 318 318
65 97 82 345 28 81 118 97 99 100 108 107 108 111 109 107 103 101 99 90 65 40 25 23 18 14 16 13 3 350 338 334 337 334 332 332 328 326 324 323 319 314 314 314
122 124 83 80 94 108 108 108 107 107 107 110 110 113 114 111 107 103 99 90 73 49 24 13 12 14 14 18 15 4 349 344 341 346 340 337 336 333 333 328 322 328 324 324
91 80 89 90 91 95 102 101 107 110 112 112 110 111 110 109 108 100 94 83 74 51 30 16 0 359 10 14 15 9 4 356 351 350 355 354 353 347 341 338 330 325 329 333
102 99 93 91 102 106 106 106 105 106 110 110 110 107 106 104 101 94 86 71 51 44 36 17 356 1 8 10 17 12 7 8 15 18 21 15 10 2 351 352 336 349 358 341
121 120 118 117 114 109 103 104 106 105 103 105 112 112 111 101 100 92 82 64 51 49 30 6 358 9 13 8 24 16 12 17 21 28 25 17 12 25 39 5 35 28 2 352
120 121 118 117 110 111 108 106 106 105 110 112 113 114 110 104 95 91 81 65 60 53 29 359 9 14 11 12 23 17 15 15 23 28 25 20 18 19 30 75 62 17 7 347
123 116 105 108 106 113 110 110 110 108 108 108 108 106 107 102 97 89 80 71 47 38 23 12 31 21 15 22 18 17 15 17 22 26 29 26 30 33 34 31 31 22 16 2
125 121 115 115 115 114 116 115 111 109 111 110 111 109 104 97 90 85 81 60 42 35 26 23 42 29 25 27 15 20 11 16 21 29 34 34 38 40 40 39 31 24 15 26
121 119 118 116 120 123 122 119 116 115 114 112 109 105 103 94 83 68 47 37 32 29 23 29 45 32 40 32 27 24 12 13 23 33 36 40 38 39 40 40 36 33 28 27
128 125 126 132 136 134 130 127 124 120 116 112 109 108 106 106 103 84 57 31 25 30 26 38 47 52 48 46 44 32 17 13 20 35 39 42 42 40 40 40 40 39 38 39
138 137 137 137 131 127 125 125 126 123 119 118 114 108 99 91 81 59 51 40 39 37 28 33 62 70 53 40 39 40 32 22 13 27 39 43 45 43 43 43 40 40 40 42
129 122 117 124 126 125 125 126 124 119 120 119 111 104 101 94 78 51 31 43 43 34 28 44 69 63 57 37 26 33 23 18 22 31 39 41 44 40 42 43 42 40 39 39
122 113 119 113 117 123 121 120 122 126 124 121 120 120 116 110 90 44 27 46 43 31 31 63 69 58 65 30 20 33 29 31 33 37 44 44 45 38 39 34 38 39 38 37
132 132 124 126 129 129 125 130 127 126 131 127 117 122 139 100 82 63 44 50 51 33 50 68 77 59 54 28 22 33 39 38 35 33 32 40 43 42 39 34 33 36 34 35
127 124 122 123 120 119 124 124 128 122 114 110 122 122 118 101 80 60 46 65 64 44 57 64 61 65 48 28 22 26 37 39 33 33 31 32 33 35 37 36 33 34 32 30
122 119 119 120 121 119 119 118 119 125 127 123 118 123 113 87 74 28 49 66 83 51 48 72 62 58 55 35 25 21 27 39 30 25 25 27 28 27 31 30 26 28 29 27
122 125 123 123 126 125 121 124 131 138 142 141 117 120 115 107 83 44 43 57 73 58 46 52 60 65 56 42 30 25 24 32 30 17 18 21 23 23 25 29 22 20 21 21
128 126 129 134 133 129 129 131 126 111 99 88 76 81 109 99 55 50 52 50 75 49 49 26 41 55 75 58 37 33 23 19 21 14 3 11 16 21 18 18 18 13 13 11
131 133 136 142 142 148 148 132 127 130 131 116 93 77 66 72 91 64 62 44 55 75 69 28 24 51 43 58 40 20 22 12 8 8 3 8 8 16 13 11 12 9 7 5
138 145 143 136 144 152 159 149 140 133 140 129 118 102 80 68 92 97 100 74 11 11 1 315 337 10 10 24 44 2 21 3 355 0 4 10 8 9 8 8 6 3 2 1
Wind_Speed_850mb
6 10 3 12 23 31 35 16 16 18 20 13 12 15 28 53 67 77 63 47 53 52 44 35 24 15 10 4 10 17 23 23 22 26 31 32 36 40 42 46 53 60 63 61
10 5 3 14 23 18 33 22 22 12 9 7 23 27 34 44 57 58 49 62 54 49 40 33 19 8 7 13 20 23 26 26 27 31 35 38 40 45 49 54 59 63 61 52
6 8 14 12 11 4 10 9 15 10 12 12 25 21 17 38 47 39 48 61 49 41 34 21 7 8 14 18 19 19 23 24 29 36 42 46 49 52 55 57 59 57 50 43
8 4 13 11 31 20 17 20 21 11 18 14 40 51 53 61 62 54 64 55 46 33 18 5 5 13 19 21 21 25 31 35 40 45 49 48 50 51 52 50 45 42 41 42
9 4 11 11 35 29 30 13 21 32 37 62 70 79 54 63 66 62 60 50 38 21 10 1 11 20 22 24 26 30 35 41 46 44 43 46 50 50 48 45 39 37 33 37
8 9 5 4 14 45 27 22 12 62 47 51 60 28 17 52 53 48 40 29 22 12 11 15 26 30 32 31 31 36 41 41 40 38 39 43 47 47 45 37 37 37 42 41
19 7 5 12 15 22 15 8 41 57 48 50 31 39 63 54 45 35 29 22 17 17 26 32 37 39 39 38 36 36 37 36 38 37 35 36 41 39 37 31 31 33 38 41
9 7 3 15 17 12 25 50 64 69 77 76 76 71 63 55 48 43 39 27 23 26 31 33 36 42 46 47 41 38 36 35 34 32 30 33 35 33 27 27 31 37 42 41
8 8 16 56 52 62 72 66 59 69 64 77 71 65 57 51 44 38 33 29 27 25 25 33 39 42 47 49 50 46 38 35 33 32 27 27 33 32 30 29 30 32 36 45
16 23 33 63 72 74 77 73 74 73 72 70 69 61 57 48 41 35 29 25 15 14 22 29 35 41 39 44 49 53 53 38 33 29 26 28 27 27 27 28 28 32 40 44
36 31 45 52 64 71 68 70 70 66 63 62 57 51 49 43 37 32 26 20 19 24 25 24 32 39 42 41 53 57 58 39 31 28 27 29 31 30 25 20 24 29 35 42
12 21 43 43 57 62 69 68 64 64 61 55 52 49 45 41 32 26 25 19 23 26 23 26 33 36 45 37 51 60 63 42 33 30 36 37 40 36 22 12 11 11 20 36
20 56 56 61 65 67 70 63 59 59 54 54 44 39 36 37 32 29 26 22 22 22 20 24 29 35 47 33 42 60 69 49 32 32 38 41 37 37 37 21 13 20 25 29
60 65 57 60 62 68 64 58 55 52 48 44 41 41 37 34 28 28 26 18 13 11 16 23 28 37 43 34 40 48 63 56 35 31 35 38 39 37 35 36 39 33 33 36
64 53 64 71 67 64 57 54 55 51 45 44 38 37 33 32 28 23 16 11 12 18 23 25 25 32 31 34 36 39 56 60 45 32 33 37 42 43 39 41 41 46 43 38
57 66 64 64 62 58 56 52 50 47 42 39 37 34 35 33 29 23 21 21 24 32 31 28 22 28 27 29 33 31 46 53 52 43 40 42 44 46 45 47 45 49 51 56
60 53 58 54 54 54 53 49 47 44 40 37 36 33 30 26 23 25 24 22 22 30 34 28 26 31 30 32 32 36 38 43 46 49 51 48 48 49 50 49 49 48 51 52
55 50 45 51 48 52 54 53 46 40 36 33 29 25 25 22 17 20 19 14 18 29 38 30 23 29 29 27 26 27 25 35 42 37 46 51 54 55 54 52 50 50 50 51
45 49 44 45 46 51 53 50 43 39 36 32 30 29 28 24 17 20 22 26 27 34 40 30 29 26 31 29 27 24 27 26 34 35 35 40 50 54 57 56 54 55 54 54
54 49 53 50 45 44 45 39 41 38 30 30 30 25 23 19 12 13 20 29 26 34 30 25 30 31 26 33 41 28 31 38 33 39 37 35 43 45 51 55 52 55 58 60
50 41 40 45 46 40 40 41 34 28 28 27 19 16 23 11 13 17 21 28 23 31 28 30 28 36 23 36 44 41 34 44 50 48 48 43 41 41 42 48 50 52 52 56
51 48 50 50 47 43 39 34 34 33 26 20 22 23 18 13 14 21 25 18 16 35 30 34 33 31 32 27 41 47 40 39 47 48 51 47 46 44 43 45 49 48 50 52
50 48 46 46 43 40 35 31 30 30 29 25 23 17 18 19 16 16 24 22 18 29 39 29 30 32 30 29 34 40 47 35 40 48 49 43 45 47 45 47 48 47 48 48
48 48 48 44 41 40 38 33 29 23 18 17 24 28 17 21 20 21 27 22 19 17 30 33 25 25 32 29 27 35 42 44 39 41 43 44 38 45 42 40 43 46 46 47
50 46 43 41 39 34 29 27 23 22 26 24 20 16 11 13 14 16 16 21 20 23 12 28 22 20 21 30 25 24 30 34 31 29 38 43 39 42 42 39 41 44 45 49
46 41 35 28 24 24 27 26 25 27 26 21 17 16 18 18 14 10 18 13 18 19 23 22 21 20 18 14 22 23 21 30 32 33 32 36 38 42 43 40 42 43 45 48
34 32 36 27 20 20 21 28 21 24 22 16 19 13 10 14 13 14 10 10 8 10 9 11 18 10 8 6 7 14 14 21 29 32 34 35 38 42 43 45 47 47 48 49
Wind_Direction_850mb
198 127 11 254 239 226 192 159 142 172 153 165 135 133 139 119 126 122 124 127 115 106 100 97 90 82 54 346 305 307 313 318 319 313 307 304 301 301 296 292 293 296 300 303
191 243 315 288 287 255 134 127 108 107 70 124 102 118 141 144 136 146 138 112 110 106 102 95 92 72 333 302 310 322 327 324 321 308 302 298 293 290 290 290 291 291 294 292
101 2 355 275 210 338 110 112 136 117 156 117 85 76 86 137 148 145 108 103 104 101 93 84 58 324 296 301 315 312 305 299 292 290 292 297 300 300 299 298 294 292 288 284
93 121 197 299 313 219 97 95 86 88 216 173 95 77 101 96 106 100 100 100 94 91 95 102 265 275 296 304 298 301 295 294 294 298 302 304 305 307 307 304 305 308 295 286
121 238 99 220 218 139 147 154 184 203 125 115 107 92 75 92 99 95 94 95 100 107 123 179 314 322 323 318 313 301 302 305 307 309 309 309 312 314 314 309 309 311 306 300
143 78 58 198 40 108 90 43 55 125 132 132 119 99 111 105 109 102 104 105 106 82 22 359 6 359 351 343 331 324 319 320 321 319 315 316 319 318 314 313 308 315 315 310
91 108 352 7 8 0 68 134 86 102 120 107 98 110 112 106 98 95 90 77 60 41 30 31 19 13 9 358 346 337 332 331 330 326 325 329 324 321 320 316 315 321 318 318
65 97 82 345 28 81 118 97 99 100 108 107 108 111 109 107 103 101 99 90 65 40 25 23 18 14 16 13 3 350 338 334 337 334 332 332 328 326 324 323 319 314 314 314
122 124 83 80 94 108 108 108 107 107 107 110 110 113 114 111 107 103 99 90 73 49 24 13 12 14 14 18 15 4 349 344 341 346 340 337 336 333 333 328 322 328 324 324
91 80 89 90 91 95 102 101 107 110 112 112 110 111 110 109 108 100 94 83 74 51 30 16 0 359 10 14 15 9 4 356 351 350 355 354 353 347 341 338 330 325 329 333
102 99 93 91 102 106 106 106 105 106 110 110 110 107 106 104 101 94 86 71 51 44 36 17 356 1 8 10 17 12 7 8 15 18 21 15 10 2 351 352 336 349 358 341
121 120 118 117 114 109 103 104 106 105 103 105 112 112 111 101 100 92 82 64 51 49 30 6 358 9 13 8 24 16 12 17 21 28 25 17 12 25 39 5 35 28 2 352
120 121 118 117 110 111 108 106 106 105 110 112 113 114 110 104 95 91 81 65 60 53 29 359 9 14 11 12 23 17 15 15 23 28 25 20 18 19 30 75 62 17 7 347
123 116 105 108 106 113 110 110 110 108 108 108 108 106 107 102 97 89 80 71 47 38 23 12 31 21 15 22 18 17 15 17 22 26 29 26 30 33 34 31 31 22 16 2
125 121 115 115 115 114 116 115 111 109 111 110 111 109 104 97 90 85 81 60 42 35 26 23 42 29 25 27 15 20 11 16 21 29 34 34 38 40 40 39 31 24 15 26
121 119 118 116 120 123 122 119 116 115 114 112 109 105 103 94 83 68 47 37 32 29 23 29 45 32 40 32 27 24 12 13 23 33 36 40 38 39 40 40 36 33 28 27
128 125 126 132 136 134 130 127 124 120 116 112 109 108 106 106 103 84 57 31 25 30 26 38 47 52 48 46 44 32 17 13 20 35 39 42 42 40 40 40 40 39 38 39
138 137 137 137 131 127 125 125 126 123 119 118 114 108 99 91 81 59 51 40 39 37 28 33 62 70 53 40 39 40 32 22 13 27 39 43 45 43 43 43 40 40 40 42
129 122 117 124 126 125 125 126 124 119 120 119 111 104 101 94 78 51 31 43 43 34 28 44 69 63 57 37 26 33 23 18 22 31 39 41 44 40 42 43 42 40 39 39
122 113 119 113 117 123 121 120 122 126 124 121 120 120 116 110 90 44 27 46 43 31 31 63 69 58 65 30 20 33 29 31 33 37 44 44 45 38 39 34 38 39 38 37
132 132 124 126 129 129 125 130 127 126 131 127 117 122 139 100 82 63 44 50 51 33 50 68 77 59 54 28 22 33 39 38 35 33 32 40 43 42 39 34 33 36 34 35
127 124 122 123 120 119 124 124 128 122 114 110 122 122 118 101 80 60 46 65 64 44 57 64 61 65 48 28 22 26 37 39 33 33 31 32 33 35 37 36 33 34 32 30
122 119 119 120 121 119 119 118 119 125 127 123 118 123 113 87 74 28 49 66 83 51 48 72 62 58 55 35 25 21 27 39 30 25 25 27 28 27 31 30 26 28 29 27
122 125 123 123 126 125 121 124 131 138 142 141 117 120 115 107 83 44 43 57 73 58 46 52 60 65 56 42 30 25 24 32 30 17 18 21 23 23 25 29 22 20 21 21
128 126 129 134 133 129 129 131 126 111 99 88 76 81 109 99 55 50 52 50 75 49 49 26 41 55 75 58 37 33 23 19 21 14 3 11 16 21 18 18 18 13 13 11
131 133 136 142 142 148 148 132 127 130 131 116 93 77 66 72 91 64 62 44 55 75 69 28 24 51 43 58 40 20 22 12 8 8 3 8 8 16 13 11 12 9 7 5
138 145 143 136 144 152 159 149 140 133 140 129 118 102 80 68 92 97 100 74 11 11 1 315 337 10 10 24 44 2 21 3 355 0 4 10 8 9 8 8 6 3 2 1